SCP
0 0 0 0 0 0 0 0 0 0 0 0 0 0 0 0 1 2 3 4 7 9 11 13 14 16 19 20 19 15 10 9 7 6 5 4 3 3 2 2 2 2 2 2
0 0 0 0 0 0 0 0 0 0 0 0 0 0 0 1 2 3 3 4 7 10 13 15 14 14 15 17 17 14 9 7 6 5 4 4 3 2 2 2 2 2 2 2
0 0 0 0 0 0 0 0 0 0 0 0 0 0 1 2 4 5 4 4 6 9 13 13 11 10 11 12 13 10 7 6 5 4 4 3 3 2 2 2 3 3 2 2
0 0 0 0 0 0 0 0 0 0 0 0 0 0 2 3 4 4 4 4 5 7 8 9 7 6 7 7 8 8 7 6 5 5 5 4 3 2 2 2 3 3 3 3
0 0 0 0 0 0 0 0 0 0 0 0 0 0 2 3 4 4 3 4 4 4 5 5 4 3 3 4 5 7 8 7 6 6 6 5 4 3 3 3 3 3 3 3
0 0 0 0 0 0 0 0 0 0 0 0 0 0 2 3 3 3 3 3 3 3 3 2 2 2 2 3 4 6 7 7 7 6 6 7 6 5 4 4 4 4 4 3
0 0 0 0 0 0 0 0 0 0 0 0 0 1 2 2 3 3 3 3 3 2 2 1 1 1 2 2 3 5 6 6 7 6 7 7 8 7 6 5 5 4 4 4
0 0 0 0 0 0 0 0 0 0 0 0 1 1 2 2 2 2 2 2 2 1 1 1 1 1 1 1 2 3 4 5 6 6 7 8 8 8 8 7 6 6 6 5
0 0 0 0 0 0 0 0 0 0 0 0 1 2 2 2 1 1 1 1 1 0 0 0 0 0 0 1 1 1 2 3 4 4 5 6 7 8 8 8 8 8 7 7
0 0 0 0 0 0 0 0 0 0 0 0 0 1 2 2 1 1 0 0 0 0 0 0 0 0 0 0 0 0 1 1 1 2 2 3 4 5 6 7 8 8 7 7
0 0 0 0 0 0 0 0 0 0 0 0 0 1 2 2 1 0 0 0 0 0 0 0 0 0 0 0 0 0 1 1 1 1 1 1 2 2 3 4 5 6 6 6
0 0 0 0 0 0 0 0 0 0 0 0 0 1 1 1 1 0 0 0 0 0 0 0 0 0 0 0 0 0 0 0 0 0 1 1 1 1 1 2 2 3 4 4
0 0 0 0 0 0 0 0 0 0 0 0 1 1 1 1 1 0 0 0 0 0 0 0 0 0 0 0 0 0 0 0 0 0 0 0 0 0 0 1 1 2 2 2
0 0 0 0 0 0 0 0 0 1 1 1 1 1 1 1 1 1 0 0 0 0 0 0 0 0 0 1 1 0 0 0 0 0 0 0 0 0 0 0 0 1 1 1
0 0 0 0 0 0 0 1 1 1 1 1 1 1 1 1 1 0 0 0 0 0 0 0 0 1 1 1 1 1 1 1 1 1 1 1 1 1 1 1 0 0 0 0
0 0 0 0 0 0 1 1 1 1 1 1 0 0 0 0 0 0 0 0 0 0 0 0 0 1 1 1 1 1 1 1 1 1 1 1 1 1 1 1 1 1 1 1
0 0 0 0 0 0 1 1 0 0 0 0 0 0 0 0 0 0 0 0 0 0 0 0 0 1 1 1 1 1 1 1 1 1 1 1 1 1 1 1 1 1 1 1
0 0 0 0 0 0 0 0 0 0 0 0 0 0 0 0 0 0 0 0 0 0 0 0 0 0 0 0 1 1 1 1 1 1 1 1 1 1 1 1 1 1 1 1
0 0 0 0 0 0 0 0 0 0 0 0 0 0 0 0 0 0 0 0 0 0 0 0 0 0 0 0 1 1 1 1 1 1 1 1 1 1 1 1 1 1 1 1
0 0 0 0 0 0 0 0 0 0 0 0 0 0 0 0 0 0 0 0 0 0 0 0 0 0 1 1 1 1 1 1 0 0 0 0 1 1 1 1 1 1 1 1
0 0 0 0 0 0 0 0 0 0 0 0 0 0 0 0 0 0 0 0 0 0 0 0 1 1 1 2 2 1 1 1 0 0 0 0 1 1 1 1 1 1 1 1
0 0 0 0 0 0 0 0 0 0 0 0 0 0 0 0 0 0 0 0 0 0 0 0 1 1 2 2 2 1 1 1 0 0 0 0 1 1 1 1 1 1 1 1
0 0 0 0 0 0 0 0 0 0 0 0 0 0 0 0 0 0 0 0 0 0 0 1 1 1 1 1 1 1 1 0 0 0 0 0 1 1 1 1 1 1 1 1
0 0 0 0 0 0 0 0 0 0 0 0 0 0 0 0 0 0 0 0 0 0 1 1 1 1 1 1 1 0 0 0 0 0 0 0 0 1 1 1 1 1 1 1
0 0 0 0 0 0 0 0 0 0 0 0 0 0 0 0 0 0 0 0 0 0 1 1 1 0 0 0 0 0 0 0 0 0 0 0 0 0 0 0 0 0 0 0
0 0 0 0 0 0 0 0 0 0 0 0 0 0 0 0 0 0 0 0 0 0 1 0 0 0 0 0 0 0 0 0 0 0 0 0 0 0 0 0 0 0 0 0
Wind_Speed
8 8 5 6 8 11 13 13 13 9 3 1 6 11 12 8 6 7 7 5 7 9 10 7 6 5 6 7 8 8 8 7 5 3 3 3 3 1 1 2 4 3 1 1
3 6 7 5 5 9 10 10 11 10 8 5 7 12 13 11 9 4 4 2 2 2 2 1 3 4 4 5 7 5 8 7 5 4 3 2 2 0 0 1 3 3 2 1
2 5 7 8 8 9 8 10 11 10 10 10 13 15 14 11 4 1 3 5 7 6 6 9 11 13 11 8 6 3 5 5 3 5 3 2 3 2 2 2 3 4 3 1
4 3 5 8 8 9 8 7 10 11 12 12 13 11 6 1 7 12 14 15 17 17 16 13 14 14 13 11 5 5 4 3 1 1 2 2 2 2 1 1 2 4 4 3
5 6 6 7 7 8 9 10 12 14 14 14 13 11 1 7 11 15 16 18 20 21 19 16 15 13 12 11 11 11 9 6 5 4 4 4 4 4 2 1 1 3 4 5
12 7 5 5 7 7 8 11 14 11 5 9 14 14 3 8 12 14 16 18 18 18 17 15 14 12 11 12 12 11 12 12 10 8 7 6 6 6 6 5 4 3 3 4
13 7 4 3 7 8 11 11 8 6 1 6 12 10 6 13 15 16 15 16 16 16 15 15 15 13 12 13 12 13 14 13 12 12 11 9 8 7 7 6 6 5 4 3
5 6 6 4 5 8 10 10 9 12 11 5 12 4 9 13 14 14 14 14 14 14 13 13 13 11 11 11 11 11 11 10 11 11 11 10 10 7 6 7 7 6 3 3
5 7 8 7 3 4 7 9 14 13 13 13 2 10 8 9 10 11 11 12 12 11 11 11 10 9 9 8 8 9 8 8 8 9 8 8 9 9 9 9 8 7 6 6
9 12 12 11 9 5 5 8 7 8 10 13 11 6 5 7 5 6 8 9 9 10 10 10 9 8 8 7 6 6 6 6 6 7 7 7 7 7 7 7 8 8 9 8
14 12 12 11 8 9 7 9 8 7 9 11 14 5 6 6 4 5 6 7 8 10 11 10 10 9 8 8 7 6 6 6 6 6 6 6 6 7 7 6 5 6 7 8
11 11 11 13 11 8 7 8 7 7 8 10 12 5 5 4 4 5 7 8 10 10 11 12 12 10 9 10 9 9 8 7 7 6 6 7 7 7 8 8 7 7 7 6
10 7 11 7 4 4 7 8 8 8 9 10 11 3 3 1 3 6 9 11 12 12 13 13 11 10 9 9 9 9 9 9 8 7 7 7 8 8 8 8 8 9 8 8
3 6 10 13 14 13 10 8 7 8 9 11 12 5 1 4 7 10 11 13 14 15 15 14 11 9 8 8 8 9 10 10 10 9 9 9 9 9 9 9 9 10 10 10
4 9 13 16 16 14 10 9 10 9 10 11 14 13 9 5 8 11 13 15 18 19 18 14 12 11 10 10 9 9 9 9 9 9 10 10 10 9 10 10 10 10 10 12
9 9 12 16 15 8 4 9 9 8 9 12 15 16 9 8 10 13 15 19 22 20 16 15 15 14 12 11 11 11 10 9 9 9 10 10 10 10 10 10 10 10 10 10
10 12 13 13 13 9 5 9 9 9 11 13 17 16 14 14 14 16 18 21 20 16 18 18 17 14 11 12 11 11 10 10 10 10 11 10 10 10 10 12 11 10 10 10
6 9 7 11 12 7 7 5 7 10 12 15 14 14 16 17 19 18 18 17 17 21 21 18 17 17 16 14 14 12 14 12 11 11 12 11 10 11 10 10 9 8 7 8
3 5 7 7 12 4 6 6 10 13 16 12 14 17 20 21 22 19 17 20 21 20 18 16 18 19 17 16 15 13 13 13 14 14 13 13 12 12 10 10 9 7 7 7
8 7 6 8 11 10 7 9 12 14 10 14 19 21 22 24 21 17 20 22 22 20 18 17 19 18 16 14 14 14 15 15 15 15 14 13 13 13 12 11 9 9 7 8
10 9 8 9 11 5 7 12 15 12 13 19 20 21 22 21 20 21 24 23 21 20 20 18 17 15 12 11 11 13 15 15 15 15 15 14 13 13 13 11 9 9 9 9
7 8 8 8 9 6 11 12 11 12 15 18 20 21 21 22 23 23 23 22 21 21 22 21 16 13 11 11 11 13 14 15 15 15 16 15 13 14 14 10 9 8 8 8
5 6 5 6 7 8 10 11 12 14 17 18 20 22 22 24 25 25 24 21 21 22 20 18 17 15 13 12 11 15 15 15 16 16 16 15 15 13 12 11 10 8 7 7
7 2 5 7 8 11 12 14 15 17 18 19 20 22 23 24 25 25 23 21 21 20 20 18 19 19 17 16 15 15 16 15 16 16 15 14 13 12 11 9 8 8 7 8
3 5 8 10 10 12 12 16 17 18 19 20 21 22 23 24 25 25 22 21 20 19 19 19 19 20 21 18 17 17 16 15 16 15 14 13 12 11 10 9 8 9 8 7
4 5 6 7 10 12 15 16 18 19 20 21 21 22 23 23 24 24 22 21 20 21 21 21 21 21 21 20 19 17 15 14 14 12 12 10 8 8 8 8 8 10 10 8
Wind_Direction
248 249 291 341 338 323 317 318 318 319 47 75 282 288 291 291 278 273 271 242 205 196 205 191 187 172 150 141 132 144 149 142 158 162 168 165 153 182 183 165 124 112 75 15
290 331 331 335 306 290 295 303 302 310 327 309 284 278 277 273 263 261 284 290 198 192 197 93 58 22 49 93 100 122 129 145 170 133 114 122 112 244 232 98 131 162 190 192
117 223 274 290 301 303 315 325 323 320 313 293 278 268 262 259 245 106 25 17 34 44 38 41 36 25 18 48 84 120 131 139 158 135 174 171 148 210 229 190 182 164 159 183
310 263 302 309 317 312 313 328 319 304 289 279 278 280 276 138 70 57 45 40 42 46 51 49 50 34 21 14 22 42 67 98 97 141 267 271 246 243 255 216 182 149 165 198
306 302 297 300 314 310 308 313 294 284 283 283 287 275 72 79 77 59 49 48 48 51 51 45 53 57 45 27 16 26 21 27 16 348 326 318 297 289 284 279 163 169 201 201
293 270 277 307 308 302 304 292 280 276 307 322 324 307 65 64 75 72 59 53 53 57 57 53 51 51 44 37 25 23 25 24 13 2 345 324 308 306 308 310 300 261 231 207
302 291 281 291 322 346 326 308 302 310 102 216 233 259 72 67 65 68 64 59 56 54 54 52 48 45 42 38 29 27 26 25 15 12 3 355 343 322 300 286 274 257 249 233
309 299 279 303 339 327 311 307 308 317 317 282 212 182 94 81 73 67 62 58 53 51 50 50 48 45 40 36 30 27 23 21 17 17 9 11 6 352 338 330 317 304 296 298
299 305 305 308 287 290 309 329 329 319 308 307 23 107 111 78 64 58 52 47 41 38 38 37 37 36 32 28 28 19 13 10 8 9 2 11 10 2 353 347 341 333 328 314
311 314 314 311 299 267 270 314 314 317 316 314 318 122 138 109 82 61 44 31 22 16 14 14 13 13 8 1 5 2 358 351 348 349 348 347 349 346 345 347 350 346 338 332
326 314 305 307 311 316 318 316 328 326 320 320 315 36 81 88 64 34 25 15 6 358 353 349 345 344 338 336 339 343 342 336 333 331 330 327 325 325 324 321 331 336 336 333
339 327 317 308 312 334 328 316 315 314 317 312 308 55 64 62 51 18 355 352 346 339 334 330 328 327 325 327 328 326 324 319 315 314 316 316 315 312 310 310 316 317 316 319
348 328 311 314 349 343 307 309 326 331 320 314 321 50 125 31 351 354 344 338 332 328 323 318 314 313 312 312 308 302 296 292 287 286 284 285 288 292 293 296 299 300 301 301
288 291 295 304 310 316 312 324 354 348 329 325 337 4 302 298 327 338 334 327 324 321 316 312 312 315 315 307 298 291 286 280 276 266 260 259 261 264 268 273 277 280 283 286
329 315 324 317 312 318 334 6 10 1 349 329 332 327 327 335 333 330 326 325 323 319 315 318 325 326 320 312 302 296 291 286 281 274 267 261 255 253 256 259 263 267 270 274
338 319 314 308 312 322 29 38 17 3 350 333 322 318 346 344 337 329 327 324 317 314 322 330 325 319 315 310 305 300 294 290 283 277 274 268 261 258 257 256 255 257 260 263
347 344 324 307 309 296 66 34 11 350 338 328 318 329 349 341 332 327 326 316 312 329 328 322 317 313 306 303 297 293 295 296 294 290 286 279 271 266 261 264 261 254 254 254
1 339 307 301 316 343 80 48 3 333 324 331 340 355 344 330 326 323 312 318 335 328 320 315 312 308 303 300 299 297 297 295 293 291 291 289 285 281 274 265 262 260 261 262
28 339 313 333 337 6 121 42 360 331 317 17 358 341 333 330 319 312 327 335 322 314 312 310 307 303 300 297 296 294 293 293 291 291 288 288 285 283 279 274 268 265 261 262
5 324 304 340 329 341 59 11 344 317 296 15 348 336 331 325 317 320 327 318 314 314 309 303 300 297 294 294 295 293 293 292 290 290 288 287 282 279 277 275 273 272 266 264
345 334 348 339 322 45 28 352 345 329 332 339 331 328 324 321 314 313 315 315 312 308 305 302 298 295 292 291 290 290 291 289 289 289 287 284 280 277 274 269 265 264 262 263
348 355 356 336 327 18 4 353 354 325 324 328 327 324 319 315 313 313 312 311 309 308 306 306 301 296 293 295 296 294 291 291 290 288 284 281 276 275 274 267 265 262 257 258
37 49 337 333 317 338 359 351 344 339 331 328 323 320 319 316 315 314 313 311 310 309 309 309 309 308 307 308 303 297 296 296 292 286 281 278 276 271 267 264 264 261 251 248
102 82 308 309 315 347 348 346 343 338 328 324 322 320 319 316 315 315 314 314 314 316 319 320 319 314 312 310 305 298 296 291 285 280 279 276 273 268 262 254 252 250 244 243
351 339 326 308 345 342 338 340 335 328 327 324 322 321 319 317 317 318 319 320 323 324 325 325 320 314 310 307 300 295 291 287 282 279 276 274 268 263 259 252 245 243 239 236
55 30 343 327 341 324 325 332 330 329 326 327 325 323 322 322 323 324 325 327 328 328 326 321 316 310 306 303 297 293 288 283 280 279 275 269 263 258 252 248 248 232 227 217